Flag for Japan Weather past 2 weeks in Hiroshima, Japan

Now
74 °F

Passing clouds.


Feels Like: 77 °F
Forecast: 65 / 83 °F
Wind: 7 mph from East

Location: Iwakuni Marine Corps Air Station

Current Time: Aug 30, 2014 at 12:11:39 AM

Latest Report: Aug 29, 2014 at 10:55 PM


Visibility: N/A

Pressure: 29.95 "Hg

Humidity: 57%

Dew point: 58 °F

Location of HiroshimaLocation

Historic Weather in Hiroshima — Graph

°F

Hiroshima temperature yesterday

Maximum temperature yesterday: 78 °F (at 8:55 AM)
Minimum temperature yesterday: 73 °F (at 4:55 AM)
Average temperature yesterday: 75 °F

Past Weeks' High & Low Weather Summary

 TemperatureHumidityPressure
High89 °F (Aug 21, 12:55 PM)97% (Aug 15, 8:55 PM)30.00 "Hg (Aug 15, 8:55 PM)
Low73 °F (Aug 29, 4:55 AM)55% (Aug 26, 1:55 PM)29.68 "Hg (Aug 16, 3:55 AM)
Average80 °F76%29.87 "Hg
* Reported Aug 14 11:55 PM — Aug 29 10:55 PM, Hiroshima, Weather by CustomWeather, © 2014

Note: Actual official high and low records may vary slightly from our data, if they occured in-between our weather recording intervals... More about our weather records

Advertising

Hiroshima weather history for previous 24 hours

 ConditionsComfort  
Time TempWeatherWind HumidityBarometerVisibility
10:55 PM
Aug 29
74 °FPassing clouds.7 mph57%29.95 "HgN/A
9:55 PM74 °FPassing clouds.9 mph69%29.96 "HgN/A
8:55 PM74 °FPartly cloudy.13 mph74%29.96 "HgN/A
7:55 PM75 °FPartly cloudy.7 mph76%29.94 "HgN/A
6:55 PM74 °FPassing clouds.No wind82%29.93 "HgN/A
5:55 PM74 °FLight rain. More clouds than sun.3 mph82%29.94 "HgN/A
4:55 PM74 °FLight rain. Mostly cloudy.8 mph82%29.93 "Hg6 mi
3:55 PM74 °FLight rain. Cloudy.5 mph82%29.92 "Hg6 mi
2:55 PM74 °FLight rain. Mostly cloudy.No wind79%29.94 "Hg5 mi
1:55 PM75 °FLight rain. More clouds than sun.3 mph76%29.96 "Hg5 mi
12:55 PM76 °FLight rain. More clouds than sun.No wind69%29.96 "HgN/A
11:55 AM77 °FLight rain. More clouds than sun.5 mph65%29.95 "HgN/A
10:55 AM76 °FLight rain. More clouds than sun.7 mph72%29.96 "HgN/A
9:55 AM76 °FLight rain. Mostly cloudy.8 mph69%29.97 "HgN/A
8:55 AM78 °FPartly sunny.8 mph62%29.96 "HgN/A
7:55 AM77 °FBroken clouds.9 mph64%29.96 "HgN/A
6:55 AM74 °FBroken clouds.6 mph76%29.96 "HgN/A
5:55 AM74 °FBroken clouds.No wind76%29.96 "HgN/A
4:55 AM73 °FMostly cloudy.3 mph79%29.96 "HgN/A
3:55 AM74 °FSprinkles. Mostly cloudy.5 mph76%29.96 "HgN/A
2:55 AM75 °FPartly cloudy.3 mph71%29.96 "HgN/A
1:55 AM75 °FPassing clouds.5 mph71%29.96 "HgN/A
12:55 AM77 °FPassing clouds.6 mph71%29.96 "HgN/A
Weather by CustomWeather, © 2014

See weather overviewHow to use our weather pages